Theta_e
310 310 310 311 311 311 311 311 310 311 313 313 313 314 316 316 318 319 321 321 320 314 314 318 317 315 317 325 322 318 324 323 323 323 322 320 321 318 318 320 317 317 317 315 312
310 310 310 311 311 311 310 310 310 310 311 312 312 313 316 316 318 318 319 318 320 318 316 316 316 317 323 325 322 320 321 323 319 319 320 320 319 317 318 315 315 314 314 312 312
309 309 309 310 311 310 309 309 309 310 310 310 311 313 312 314 316 317 317 317 318 321 317 314 315 318 322 323 322 320 322 321 318 319 320 319 318 317 317 317 315 313 312 311 312
309 309 309 310 310 309 306 307 310 308 310 310 311 311 311 316 316 314 314 315 318 320 317 313 315 318 320 322 319 319 317 318 316 316 319 319 315 317 316 313 315 312 312 312 312
309 309 310 310 310 309 307 308 310 308 309 311 311 311 312 315 315 311 311 313 318 318 316 314 315 318 320 319 318 318 315 314 313 314 313 315 314 316 310 312 312 312 313 312 312
309 309 309 310 310 309 309 308 309 309 308 308 309 310 313 315 312 311 311 313 315 316 313 313 315 317 318 318 318 315 314 313 313 311 311 314 311 312 310 310 310 311 311 311 313
309 309 307 309 308 306 309 311 312 308 309 308 309 312 313 313 310 310 310 311 310 311 314 313 315 317 317 317 314 313 312 313 312 312 311 312 311 311 308 309 310 310 311 312 314
308 305 307 308 306 306 308 308 309 309 311 310 311 311 312 309 310 310 309 311 310 310 310 312 314 315 316 314 313 315 315 316 312 312 310 311 320 310 307 308 309 310 311 312 314
308 308 307 307 305 305 309 308 308 309 309 310 310 310 311 309 309 311 310 311 309 310 310 313 313 314 313 314 316 315 320 317 312 311 311 311 314 308 308 308 308 307 309 311 313
305 306 305 305 305 305 307 306 307 307 308 308 309 310 308 309 310 310 310 310 310 312 312 312 312 312 313 315 317 315 318 316 314 311 311 311 312 310 308 308 307 306 307 310 312
303 305 305 305 307 306 309 309 310 307 305 309 310 309 309 309 309 309 309 310 311 311 315 314 315 314 314 315 315 314 317 316 314 313 312 313 313 310 309 308 307 306 307 308 312
302 304 305 305 306 307 308 309 307 306 305 306 308 309 309 308 310 309 310 311 312 315 315 316 315 312 313 312 312 315 315 315 314 313 313 313 313 313 311 309 308 308 306 307 311
303 304 304 305 306 308 306 307 308 308 308 307 308 308 308 309 310 310 310 312 312 315 315 316 312 310 312 311 314 314 316 315 315 313 312 312 312 312 312 311 309 309 309 309 308
304 304 304 305 307 307 307 306 305 306 312 309 309 309 309 310 310 309 310 311 312 313 313 311 310 312 312 314 315 316 314 315 315 315 317 312 318 314 312 311 311 311 310 311 312
304 304 304 304 306 308 307 306 305 308 316 309 310 308 310 310 309 310 309 311 313 311 313 311 312 313 315 314 315 315 313 313 314 314 314 312 316 315 311 312 311 311 311 310 311
305 305 304 308 307 306 304 305 306 315 315 313 311 312 312 311 311 310 311 311 312 313 312 313 312 313 313 313 313 313 313 314 314 317 317 315 314 317 314 315 316 314 314 314 313
305 305 306 306 309 306 306 307 317 314 309 312 314 312 311 311 311 311 312 312 314 314 317 314 314 313 313 313 313 314 316 320 317 309 319 315 313 311 313 314 315 315 314 314 313
305 305 308 306 306 306 307 314 314 314 313 312 313 312 313 312 312 311 312 312 311 312 316 314 312 314 313 313 314 315 317 320 316 316 318 313 312 315 313 313 313 312 314 314 314
305 309 310 309 306 306 312 314 316 313 312 314 313 313 313 312 314 313 313 313 313 311 315 315 315 313 313 313 314 313 317 313 316 314 315 317 317 315 315 314 313 314 315 315 315
307 311 312 307 306 308 316 314 313 312 312 312 314 315 313 313 313 313 312 313 314 313 312 313 315 314 314 314 313 314 312 315 315 316 319 318 317 321 317 316 314 315 312 312 313
308 315 311 307 308 314 317 313 312 310 311 313 314 313 312 313 313 313 313 313 314 313 311 312 315 315 314 314 314 312 314 314 314 314 321 317 317 313 315 315 313 312 313 312 312
312 323 311 309 319 317 319 314 311 313 312 313 313 313 313 313 313 313 315 314 313 314 314 313 313 314 315 313 312 314 315 313 314 317 313 314 313 311 312 313 311 310 309 309 309
316 315 312 311 322 316 313 313 313 313 313 314 314 313 313 313 315 314 315 313 313 314 314 312 315 312 314 314 313 314 314 314 312 313 316 314 311 311 312 310 309 309 307 305 306
313 321 316 314 312 314 314 314 314 312 312 312 313 312 313 314 313 315 315 314 313 312 311 311 313 315 313 316 315 314 314 313 312 311 314 313 309 311 309 308 307 306 306 304 303
312 315 310 317 312 312 312 312 313 313 311 310 312 312 311 313 314 314 315 314 314 311 312 311 313 307 311 311 312 314 315 314 313 313 314 312 311 310 308 307 307 306 304 303 303
312 312 308 310 310 311 308 310 311 311 310 310 311 310 310 310 310 314 315 314 315 313 313 310 311 309 307 308 307 308 308 313 313 313 312 312 311 308 306 306 305 304 303 303 303
308 308 307 308 310 309 309 310 311 310 310 309 309 309 310 309 308 308 308 308 309 312 311 310 309 308 310 306 306 306 306 307 311 311 312 312 310 309 306 305 304 303 303 303 302
Wind_Speed
16 17 18 19 18 14 12 13 14 10 9 11 13 14 10 9 8 9 5 4 5 4 9 9 9 9 11 6 3 2 1 4 6 11 8 9 3 6 3 8 6 6 9 19 24
15 16 17 18 18 14 12 14 18 11 10 13 12 15 12 12 12 9 1 3 4 4 8 13 11 12 4 5 2 2 2 2 9 7 10 11 8 6 5 9 6 8 14 22 20
14 15 16 17 17 13 12 15 14 7 9 13 14 14 12 12 9 4 4 1 3 4 11 12 14 10 6 4 4 4 2 3 8 6 8 9 10 6 9 5 9 10 9 13 17
14 16 17 17 12 15 18 12 10 2 1 10 13 12 11 15 7 3 2 2 6 6 10 13 11 11 8 6 5 1 5 7 4 7 6 7 6 3 5 3 7 13 12 10 8
13 14 16 15 14 19 19 15 11 1 5 8 12 12 9 6 4 1 1 1 8 0 11 11 10 10 9 8 5 1 4 4 5 8 8 8 5 2 6 4 11 12 10 9 8
12 12 15 16 16 19 19 16 8 2 6 9 10 13 12 11 4 3 5 5 10 3 10 14 8 15 8 10 8 7 7 6 5 6 3 5 3 4 4 5 9 9 8 7 7
12 13 14 16 16 20 20 17 11 1 5 10 8 14 6 5 2 0 3 7 6 3 8 18 15 9 5 8 8 12 8 6 4 3 2 1 2 4 10 7 7 7 6 7 7
12 15 16 16 13 18 14 18 25 14 14 10 10 5 4 4 5 2 2 5 4 5 13 19 15 2 2 7 6 6 6 5 4 3 0 1 3 8 10 8 9 8 7 6 5
13 15 15 16 12 10 16 12 15 13 14 11 8 4 4 4 4 7 3 8 6 8 11 7 4 4 2 7 3 7 4 6 4 1 3 4 4 6 7 7 7 8 8 7 7
13 13 15 18 10 6 2 3 21 14 12 9 3 4 3 3 3 7 8 13 3 13 3 3 3 4 5 6 6 5 6 6 6 6 1 4 2 7 7 7 8 9 9 9 9
13 10 12 17 17 11 6 7 1 7 14 6 5 9 3 5 3 6 8 10 2 7 6 8 4 7 11 9 6 9 8 9 6 2 3 4 5 7 9 7 8 8 9 9 10
11 9 9 14 14 15 12 5 5 6 3 15 13 8 4 6 6 6 5 8 8 8 10 6 5 2 6 4 4 9 8 6 6 4 2 6 7 8 8 8 10 9 9 9 9
10 10 11 15 5 8 11 6 1 3 3 6 5 4 5 5 6 3 4 2 8 13 11 4 4 2 3 5 4 5 9 6 6 5 1 1 6 7 8 9 10 10 7 6 9
9 10 11 9 2 2 3 2 2 3 2 9 6 4 5 2 5 4 3 2 5 17 10 6 3 6 5 5 3 4 3 9 9 4 3 3 3 2 6 7 4 7 5 2 1
11 11 12 6 7 2 1 3 2 2 3 7 4 4 6 3 5 4 8 5 4 8 6 2 4 7 8 4 4 4 1 6 6 3 3 3 4 5 6 6 6 7 7 8 6
9 11 11 3 4 2 4 5 0 1 6 4 4 2 5 5 8 10 3 5 8 15 13 5 5 6 3 5 3 8 6 5 5 2 3 2 3 4 3 4 5 4 5 8 6
9 9 8 5 3 4 4 2 1 5 2 6 6 4 11 11 9 7 5 2 4 6 3 6 6 3 2 6 2 3 2 3 4 3 3 3 1 6 6 6 7 7 6 6 5
8 9 5 3 4 3 4 2 8 5 6 2 3 6 11 7 5 6 4 5 8 11 3 4 1 6 4 3 3 3 2 4 5 4 3 4 4 3 6 6 5 7 5 4 4
6 3 4 3 3 3 3 8 3 1 1 3 6 6 6 5 5 4 7 4 6 6 3 5 3 2 4 4 4 3 1 0 3 1 4 4 5 5 6 4 5 6 2 3 4
5 5 2 5 1 1 2 7 3 5 4 3 2 5 8 4 3 4 3 3 4 4 7 4 5 2 2 2 5 4 2 4 3 3 2 2 2 3 3 4 5 5 6 5 2
3 2 1 0 2 1 3 4 3 1 2 5 6 5 6 2 3 4 5 2 3 1 8 6 5 2 3 4 4 2 2 1 1 3 2 1 3 3 5 5 7 5 3 1 2
5 1 2 2 1 3 2 4 1 2 1 1 3 5 5 4 5 2 4 5 4 3 2 2 5 4 3 3 5 3 3 3 3 2 1 2 4 5 7 6 5 3 4 4 4
3 2 0 3 3 3 1 3 3 1 1 2 2 4 2 2 1 4 5 2 4 5 4 5 3 4 2 1 2 2 4 3 4 3 3 2 3 5 6 5 4 3 5 5 4
3 2 1 1 2 4 3 3 3 2 1 3 3 1 3 2 3 4 5 1 2 3 4 4 4 3 3 3 3 4 5 7 5 3 3 5 5 7 7 6 6 6 5 5 6
1 1 2 0 2 4 1 1 4 3 2 2 3 4 4 3 4 3 4 4 2 1 1 3 3 3 3 3 3 2 5 8 9 7 3 1 3 2 3 5 3 3 6 8 7
3 3 2 2 1 4 3 2 2 3 3 3 1 2 5 4 5 5 5 4 2 2 0 2 1 2 2 4 2 4 7 7 9 9 9 8 7 6 6 4 5 6 7 7 6
3 2 2 1 2 3 2 3 4 3 1 4 3 1 7 4 5 5 5 6 6 2 3 1 3 1 1 1 4 6 11 13 7 6 8 7 6 3 5 6 6 7 6 5 7
Wind_Direction
356 353 349 348 345 335 336 338 336 326 259 238 216 218 198 197 201 193 205 279 293 248 188 178 184 202 212 214 335 314 279 232 246 150 118 142 126 45 66 111 54 45 59 111 135
353 353 351 349 347 334 325 325 320 294 277 234 216 200 190 189 178 196 155 215 318 211 198 179 183 180 175 202 208 223 247 262 3 21 135 150 148 103 130 114 99 84 91 116 137
352 351 350 348 347 352 333 321 323 280 281 223 199 191 191 169 176 158 24 208 232 201 218 203 189 182 175 168 219 208 310 65 27 28 124 158 135 169 128 183 165 154 142 143 155
354 354 354 350 358 355 356 333 325 259 219 189 185 193 184 177 169 68 278 322 187 161 214 228 207 192 180 169 176 225 22 21 4 348 123 146 79 166 83 28 122 132 146 149 149
353 353 355 356 3 5 2 351 6 254 207 178 179 187 169 200 109 342 131 303 188 169 209 219 201 195 196 186 140 162 75 36 40 30 45 84 64 138 88 62 96 116 135 153 153
352 4 357 354 358 356 348 345 339 336 225 211 197 180 197 177 84 14 111 141 124 242 220 234 204 216 205 159 188 111 110 104 90 60 34 100 65 20 116 84 97 121 155 147 138
3 4 359 352 352 360 0 9 344 162 211 204 199 185 183 115 94 168 142 125 83 287 246 227 228 226 257 129 91 133 108 112 94 158 70 44 126 254 138 139 143 165 170 143 162
355 2 356 353 347 7 31 50 48 63 90 122 146 132 58 24 95 84 111 138 156 322 265 251 265 236 162 108 122 167 148 139 128 208 224 335 192 142 146 163 170 185 170 157 174
350 357 4 3 352 15 53 55 57 52 63 69 50 64 79 45 100 63 58 113 188 305 266 207 179 101 88 164 135 196 167 125 129 41 121 215 85 130 151 182 192 186 179 175 193
357 10 29 22 1 338 231 47 44 50 21 86 64 86 332 83 71 98 74 113 172 308 202 159 165 150 186 184 188 172 144 121 133 176 231 176 267 150 179 198 220 201 190 185 194
2 16 19 24 28 18 1 306 242 19 32 359 29 87 63 354 61 97 113 103 330 260 167 199 156 188 187 191 220 154 143 125 79 99 199 207 245 196 180 204 229 244 201 191 191
352 349 342 3 28 40 50 70 53 141 45 6 33 59 36 340 112 97 127 143 212 201 157 156 180 77 203 123 247 175 139 100 73 131 189 191 248 246 207 201 202 216 235 210 177
345 344 337 339 16 44 67 86 94 191 86 18 357 5 310 345 89 89 339 167 184 184 154 126 82 298 187 142 210 158 142 149 152 157 233 350 281 216 223 209 196 206 207 222 181
337 342 345 340 290 358 84 7 54 153 83 7 359 26 314 23 70 200 258 274 241 162 126 77 223 193 117 80 2 83 32 124 136 138 153 161 267 225 183 192 200 180 168 270 307
317 333 343 348 316 322 300 356 12 177 65 344 357 312 269 80 157 355 248 242 112 86 86 169 114 96 57 340 334 150 177 135 169 106 96 184 69 261 87 177 186 204 203 193 206
311 327 350 351 293 242 309 349 336 252 43 23 311 355 135 170 131 217 278 164 76 87 76 77 37 58 59 68 87 146 125 86 62 68 54 39 113 289 134 105 89 60 106 98 94
309 322 340 341 341 330 311 235 5 45 165 356 37 128 103 104 136 149 153 116 145 96 63 79 56 80 79 71 349 271 164 50 28 25 202 312 44 255 122 72 98 89 92 124 137
309 321 323 286 304 297 254 235 51 31 55 171 127 95 86 87 103 142 124 70 26 99 133 107 348 351 330 8 169 52 79 142 159 168 198 47 225 244 101 74 70 102 73 82 159
324 334 290 262 330 316 262 51 51 84 47 94 135 89 100 119 132 81 77 47 28 4 113 123 46 110 19 44 354 184 132 353 96 54 74 193 241 59 66 127 131 124 123 176 163
320 254 185 309 323 252 50 101 83 45 348 276 53 192 131 124 167 128 116 344 20 349 320 134 106 91 145 270 44 39 154 67 1 103 212 260 203 212 44 79 120 108 60 50 70
272 254 337 206 138 258 78 88 122 180 320 0 2 49 68 43 314 76 55 83 49 275 278 192 125 156 188 216 147 124 135 40 74 111 155 155 259 51 135 124 108 93 114 206 239
282 276 220 164 44 67 44 116 94 121 180 330 308 52 43 318 35 64 104 49 350 314 7 49 117 139 80 54 36 358 327 193 112 197 287 161 260 89 110 118 121 4 19 359 329
287 21 218 146 74 71 100 74 338 195 145 231 98 7 347 39 70 56 83 40 1 39 30 352 99 97 48 64 79 245 195 282 77 46 221 126 240 132 166 167 78 69 14 357 10
293 2 9 77 305 103 160 105 116 94 17 337 67 236 204 109 341 140 126 93 21 72 323 305 16 68 138 127 106 183 199 184 165 139 226 214 144 182 195 50 40 18 332 357 358
260 44 349 181 50 84 269 171 152 149 252 244 182 338 334 135 154 104 101 147 149 153 284 11 80 65 17 93 9 316 177 183 205 225 182 62 53 149 88 67 22 336 7 9 341
347 343 215 111 178 248 151 74 125 139 330 134 101 56 11 63 16 160 150 194 116 192 212 6 108 80 295 92 271 260 259 233 215 241 261 284 297 108 52 33 30 346 352 339 355
10 246 273 169 180 275 52 76 99 141 77 27 12 236 93 61 55 40 46 42 54 125 156 152 120 91 110 170 288 289 220 207 194 182 199 227 226 82 36 27 342 320 315 329 19